Temp
57 47 45 50 52 53 51 48 47 53 59 57 56 58 63 65 61 61 61 58 61 61 65 66 65 65 65 62 61 61 58 56 55 55 51 50 48 48 47 48 48 48 47 47
50 46 55 58 56 52 51 47 47 54 59 58 56 56 63 66 64 64 66 62 59 63 63 64 64 64 63 60 60 60 58 56 56 56 56 52 50 49 49 48 47 47 47 46
48 52 60 56 53 51 50 48 49 51 57 59 56 53 58 65 66 65 63 64 63 63 62 63 63 63 60 60 59 59 58 56 56 56 53 50 49 48 46 46 45 46 47 46
49 57 55 53 51 54 47 57 56 54 50 42 53 40 54 59 61 64 66 66 62 61 66 65 63 62 60 60 60 59 58 56 56 56 54 51 50 47 45 46 45 45 46 46
48 51 51 50 52 57 51 57 54 53 48 45 48 42 50 56 55 58 59 61 63 59 65 64 63 64 61 61 59 59 58 56 56 56 54 52 49 47 46 45 44 44 44 45
51 58 54 54 57 56 57 51 52 49 45 38 46 43 44 50 54 55 60 62 67 67 66 66 66 66 61 60 59 58 57 56 55 55 54 52 48 45 45 43 42 42 43 43
46 48 55 57 49 53 49 43 35 33 34 34 50 45 47 58 58 60 61 62 63 61 61 65 64 61 59 57 56 56 56 54 55 53 53 50 49 48 47 44 43 42 41 40
38 36 50 55 50 46 45 45 36 28 32 37 49 40 48 58 58 58 58 58 59 65 63 65 65 59 58 56 55 56 56 54 53 52 52 51 50 49 47 46 45 43 41 40
37 39 53 55 57 53 46 39 49 39 41 34 41 46 54 57 53 52 53 53 52 51 53 61 64 59 56 56 54 55 55 54 53 53 50 50 50 48 47 46 45 42 40 42
40 34 45 50 54 54 48 52 37 37 28 27 37 40 40 42 46 49 48 49 50 51 52 56 58 54 55 55 53 54 55 54 53 51 50 49 49 49 47 44 42 42 41 41
42 35 38 46 46 43 45 43 42 40 37 31 30 35 43 43 46 46 48 51 49 48 49 51 51 53 53 53 52 52 53 49 48 48 49 47 45 43 43 41 41 41 40 39
36 35 32 38 49 50 43 36 36 32 31 32 33 34 47 47 49 50 51 52 53 50 48 48 48 50 50 50 50 50 48 48 48 47 46 43 41 41 40 40 40 40 38 39
37 32 26 32 40 42 36 36 34 34 32 29 28 31 46 48 49 52 50 52 53 52 51 49 47 43 41 45 46 46 45 45 44 45 42 41 40 39 38 38 38 39 38 38
40 33 29 25 30 37 32 34 36 33 27 27 28 32 39 46 48 50 50 53 53 53 51 51 46 46 47 46 41 39 43 42 42 42 41 39 39 38 38 38 38 38 38 37
34 27 31 31 33 36 36 35 38 31 32 27 31 32 40 46 48 51 55 53 53 53 50 49 46 45 46 43 41 41 41 39 38 38 38 36 38 38 38 37 37 37 37 36
35 24 28 27 34 36 31 36 37 38 38 37 37 38 49 50 52 52 53 53 52 52 52 50 47 46 45 43 42 43 40 38 39 36 34 36 36 36 37 36 36 35 35 34
26 23 22 23 33 30 24 33 36 38 42 41 34 43 47 46 48 49 51 53 54 54 52 50 48 47 46 44 43 40 39 39 38 36 34 34 34 34 34 36 35 34 33 33
28 27 26 22 28 16 34 43 43 40 42 45 45 47 47 47 48 49 51 53 55 54 52 52 50 49 47 45 43 41 40 39 38 36 36 34 34 34 33 33 33 32 32 29
34 28 20 18 22 28 33 39 38 36 37 41 41 45 47 47 46 46 50 50 51 52 52 52 52 49 46 42 41 40 39 39 39 37 36 36 34 33 33 33 32 31 29 27
37 32 25 18 17 16 31 38 43 42 27 40 43 41 43 45 34 38 48 49 48 42 42 47 46 45 41 41 40 38 37 38 37 37 37 37 36 34 33 32 31 30 29 27
23 20 22 23 21 26 35 40 43 23 26 37 41 43 42 39 40 45 46 48 46 40 36 42 42 41 40 39 39 36 35 35 36 37 37 36 36 34 34 32 30 30 29 28
24 21 21 25 22 20 38 39 31 35 39 37 38 43 41 41 40 42 44 43 44 39 37 34 35 35 36 37 37 35 34 35 34 34 33 33 33 32 31 30 30 31 29 27
22 28 23 27 25 36 41 40 42 43 40 41 40 43 44 43 41 45 45 45 41 37 39 37 34 34 35 36 36 34 33 33 33 32 32 31 32 31 31 30 29 28 28 27
31 39 29 30 35 37 42 44 44 45 43 44 44 44 45 43 44 41 43 43 38 37 38 37 36 35 34 34 34 35 33 34 33 31 30 31 30 30 30 31 30 28 26 26
28 34 30 30 34 37 41 43 42 44 45 45 47 44 45 44 43 42 42 41 39 36 38 38 37 35 34 34 32 33 33 33 32 31 29 29 30 30 29 30 29 29 29 29
31 30 25 22 34 34 37 41 43 43 44 44 45 45 45 43 42 43 41 40 39 36 38 37 36 35 34 34 33 33 34 34 32 30 29 29 29 29 29 29 28 33 32 32
MSLP
1009.42 1009.84 1009.32 1009.67 1009.49 1009.34 1009.62 1009.07 1007.73 1007.04 1006.80 1006.38 1005.17 1002.90 1001.25 1001.63 1001.56 1001.66 1001.09 1001.36 1001.84 1002.06 1001.52 1002.93 1003.95 1005.12 1006.11 1007.40 1007.98 1008.43 1009.19 1010.40 1011.56 1012.79 1014.14 1015.30 1016.04 1016.88 1017.59 1017.84 1017.99 1018.28 1018.46 1019.00
1009.67 1007.95 1008.21 1008.85 1009.03 1009.08 1009.15 1008.48 1007.06 1006.20 1006.48 1006.05 1004.72 1002.57 1000.46 1000.63 1000.45 1000.48 1000.57 1000.58 1001.15 1001.09 1001.99 1002.50 1003.25 1004.20 1005.08 1006.03 1006.94 1007.68 1008.51 1009.48 1010.69 1011.79 1012.91 1014.17 1015.62 1016.66 1017.20 1017.78 1018.16 1018.57 1018.79 1019.18
1009.02 1006.81 1006.73 1007.94 1007.61 1007.89 1007.86 1007.01 1006.92 1006.27 1005.83 1004.96 1004.54 1002.34 1000.52 999.60 999.62 999.44 999.73 999.84 999.87 1000.02 1000.39 1001.00 1002.16 1003.01 1004.26 1005.26 1006.01 1006.69 1007.52 1008.59 1009.65 1011.13 1012.47 1014.09 1015.31 1016.67 1017.33 1017.93 1018.42 1018.84 1019.07 1019.25
1008.01 1006.50 1006.76 1007.11 1006.03 1007.26 1006.40 1006.08 1006.09 1005.82 1005.82 1004.53 1004.50 1002.35 999.48 999.86 998.90 998.93 999.04 999.20 999.06 999.25 999.57 999.59 1000.31 1001.80 1002.73 1003.90 1005.38 1006.28 1007.05 1008.13 1009.39 1010.49 1011.72 1012.46 1013.88 1015.60 1016.77 1017.65 1018.42 1018.98 1019.34 1019.41
1004.39 1005.32 1005.61 1005.24 1003.82 1006.29 1004.58 1006.02 1006.21 1005.82 1005.37 1005.21 1002.64 1003.86 999.07 999.34 998.28 998.50 998.32 998.32 998.05 998.10 998.35 998.96 999.83 999.96 1001.23 1003.01 1003.91 1005.18 1006.69 1008.08 1009.10 1009.90 1011.14 1012.45 1013.84 1015.07 1016.26 1017.50 1018.52 1019.14 1019.68 1019.59
1005.16 1006.31 1005.35 1003.93 1004.40 1004.83 1005.15 1005.47 1005.92 1005.82 1005.44 1004.89 1001.40 1003.31 1001.76 997.23 998.10 997.87 997.96 997.63 997.34 997.03 997.57 997.80 998.08 999.20 1001.07 1002.68 1003.96 1005.07 1006.15 1007.64 1008.73 1009.87 1011.09 1012.16 1013.39 1014.63 1015.99 1017.21 1018.41 1019.14 1019.70 1019.93
1006.90 1005.71 1005.42 1005.60 1005.30 1004.25 1005.34 1005.95 1005.93 1005.78 1004.44 1002.73 1001.47 1002.47 999.98 996.31 998.21 997.95 997.87 997.60 997.10 996.49 996.76 997.14 998.07 999.48 1001.13 1002.20 1003.08 1004.39 1005.35 1006.51 1008.18 1009.39 1010.68 1011.87 1013.15 1014.32 1015.42 1016.72 1017.78 1018.69 1019.50 1019.95
1007.54 1005.37 1003.91 1004.30 1004.41 1004.05 1004.08 1004.37 1005.19 1002.96 1003.35 1002.22 1001.93 1000.43 997.55 997.91 998.31 998.40 998.07 997.50 996.79 995.91 995.75 995.87 996.51 997.99 999.29 1000.76 1001.86 1003.22 1004.40 1005.67 1007.37 1008.67 1009.95 1010.59 1011.87 1013.49 1015.02 1016.21 1017.58 1018.20 1018.98 1019.68
1007.75 1005.75 1003.75 1003.86 1003.57 1004.09 1002.82 1003.98 1002.17 1003.95 1003.50 1003.22 1001.68 999.55 998.61 998.18 998.56 999.02 999.10 998.48 997.75 996.57 995.34 995.02 995.58 997.16 999.25 1000.96 1002.49 1003.30 1004.09 1005.88 1007.04 1008.58 1009.84 1011.74 1012.42 1012.44 1014.39 1015.78 1017.46 1018.14 1018.65 1019.62
1008.97 1007.06 1005.66 1004.18 1003.54 1003.08 1003.41 1003.27 1003.75 1003.66 1002.98 1002.14 1001.57 1000.49 999.56 999.64 1000.14 1000.08 1000.06 999.78 998.96 997.52 995.98 995.46 996.93 998.82 1000.46 1002.00 1003.08 1004.04 1005.07 1006.34 1007.35 1008.83 1009.57 1010.72 1011.95 1013.27 1013.64 1015.29 1016.68 1017.82 1018.68 1019.21
1010.18 1008.90 1006.60 1005.17 1003.70 1003.93 1003.75 1003.30 1003.91 1003.64 1002.84 1001.88 1001.65 1000.68 1000.50 1000.85 1000.86 1000.89 1000.38 1000.01 999.74 998.92 998.55 998.35 998.91 999.93 1001.33 1002.90 1004.07 1004.77 1005.52 1006.60 1007.72 1008.91 1009.71 1010.63 1012.43 1013.18 1014.55 1015.43 1016.80 1017.48 1018.36 1018.94
1012.04 1010.47 1008.19 1006.45 1004.41 1004.89 1005.31 1005.38 1005.42 1004.13 1003.67 1002.87 1001.76 1001.87 1001.32 1001.92 1001.33 1000.50 1000.74 1000.66 1000.26 999.95 1000.27 1000.42 1000.62 1001.43 1002.34 1003.58 1004.49 1005.68 1006.65 1007.45 1007.71 1008.53 1009.75 1010.72 1010.92 1013.62 1014.75 1015.77 1016.83 1017.76 1018.25 1019.04
1013.15 1011.68 1009.99 1007.27 1006.01 1006.08 1006.74 1007.33 1007.15 1007.22 1005.96 1004.93 1003.78 1003.22 1002.45 1001.83 1000.27 999.95 1000.49 1000.46 1000.49 1000.71 1000.94 1000.66 1001.52 1002.26 1002.95 1003.88 1004.60 1005.56 1006.94 1007.98 1008.51 1009.18 1010.05 1011.33 1012.01 1013.10 1014.59 1015.78 1016.77 1017.56 1018.30 1018.90
1013.17 1012.83 1011.50 1010.10 1009.14 1008.04 1008.11 1007.71 1007.90 1007.96 1006.92 1005.74 1004.89 1004.27 1003.22 1002.36 1000.99 1000.21 1000.19 999.83 1000.22 1000.76 1000.82 1001.43 1001.83 1002.73 1002.76 1003.49 1004.00 1005.07 1006.39 1007.68 1008.40 1009.46 1010.51 1011.61 1012.42 1013.38 1014.74 1016.09 1016.90 1017.73 1018.35 1019.15
1013.48 1013.10 1012.14 1011.52 1009.63 1009.29 1008.56 1007.66 1007.33 1007.38 1006.68 1006.32 1004.62 1004.35 1002.38 1002.54 1000.71 1000.10 999.21 998.84 999.51 999.86 999.70 1000.83 1001.90 1002.78 1003.86 1004.95 1004.85 1005.15 1006.00 1007.30 1008.03 1009.61 1010.80 1011.86 1012.82 1013.84 1014.84 1016.04 1017.22 1018.05 1018.61 1019.50
1013.70 1013.23 1011.98 1010.84 1010.84 1009.83 1008.49 1006.82 1006.75 1005.71 1005.06 1004.26 1002.99 1002.86 1000.96 1000.51 999.96 999.78 999.05 998.61 998.57 999.01 999.89 1000.75 1001.41 1002.49 1003.43 1004.27 1003.89 1005.27 1006.88 1007.69 1008.11 1009.42 1010.86 1011.98 1013.03 1014.11 1014.86 1015.96 1017.31 1017.80 1019.22 1019.77
1013.44 1013.36 1012.59 1011.23 1010.55 1009.37 1008.81 1006.38 1005.67 1004.71 1003.98 1003.56 1002.82 1001.46 1000.45 999.77 999.64 999.05 998.22 997.78 997.80 998.34 999.10 1000.27 1001.16 1001.72 1002.50 1003.36 1003.71 1004.96 1006.57 1007.92 1008.82 1009.59 1010.51 1011.98 1013.06 1013.98 1015.04 1016.15 1016.37 1018.23 1018.56 1020.04
1012.20 1012.01 1012.19 1010.98 1009.96 1009.25 1006.80 1004.94 1004.66 1003.90 1003.17 1002.67 1002.24 1000.74 1000.42 999.88 999.57 998.29 997.84 996.95 997.29 997.79 998.41 999.49 1000.52 1001.51 1002.63 1002.80 1003.75 1005.25 1006.81 1008.41 1009.33 1010.00 1010.67 1011.40 1013.09 1014.17 1014.96 1015.95 1017.11 1017.30 1018.90 1019.99
1011.65 1012.58 1012.52 1011.86 1010.21 1008.09 1006.27 1004.85 1003.90 1003.55 1003.98 1003.51 1002.66 1000.70 1000.19 999.93 999.47 998.19 998.21 997.91 997.80 997.89 998.06 998.56 998.99 1000.51 1002.15 1002.09 1003.34 1005.35 1007.10 1008.20 1009.07 1010.04 1010.72 1011.04 1012.15 1013.68 1014.75 1015.97 1015.96 1017.97 1019.10 1019.87
1010.82 1011.46 1012.29 1011.23 1009.89 1007.90 1005.86 1004.30 1004.14 1004.17 1004.38 1003.74 1003.63 1002.87 1001.52 1000.02 1000.09 999.29 999.14 999.08 998.75 998.30 998.85 999.18 999.62 1001.00 1001.26 1002.39 1004.08 1005.44 1006.78 1007.94 1008.58 1009.63 1010.63 1011.17 1011.75 1013.06 1014.69 1014.99 1016.92 1018.07 1018.95 1019.61
1011.40 1011.58 1011.38 1010.53 1009.29 1007.46 1006.60 1005.67 1004.48 1004.94 1005.47 1004.72 1004.06 1003.11 1002.26 1001.76 1001.11 1000.32 1000.07 999.88 1000.09 1000.28 1000.21 1000.02 1000.09 1000.10 1001.03 1002.57 1003.99 1005.46 1006.79 1006.90 1007.79 1009.30 1010.39 1011.37 1012.09 1013.15 1014.44 1015.83 1017.18 1017.91 1018.76 1019.60
1011.29 1011.02 1010.47 1009.72 1008.87 1007.46 1006.95 1005.71 1005.94 1006.12 1005.04 1004.63 1004.25 1003.44 1002.80 1002.16 1001.58 1000.67 1000.40 1000.16 999.82 1000.13 1000.53 1000.90 1000.98 1001.45 1002.57 1003.57 1004.78 1005.12 1006.42 1007.37 1008.45 1008.34 1010.11 1011.43 1012.45 1013.54 1014.64 1015.72 1017.01 1017.70 1018.60 1019.61
1011.00 1010.85 1010.96 1010.32 1008.75 1007.15 1006.58 1005.88 1005.44 1005.19 1004.84 1004.15 1003.78 1003.16 1002.70 1002.10 1001.29 1000.47 999.98 1000.04 1000.17 1000.36 1000.97 1001.58 1001.85 1002.55 1003.29 1003.76 1004.03 1004.75 1006.57 1007.81 1009.12 1009.75 1010.07 1011.35 1012.45 1013.58 1014.45 1015.62 1016.86 1017.68 1018.53 1019.43
1010.37 1009.73 1009.76 1009.13 1007.18 1006.46 1005.63 1005.32 1004.99 1004.90 1004.46 1003.77 1002.78 1002.83 1002.15 1002.10 1001.34 1000.70 1000.24 1000.31 1000.82 1000.78 1001.09 1001.84 1002.36 1002.78 1003.45 1003.80 1003.93 1005.08 1006.41 1007.70 1008.85 1009.79 1010.53 1011.42 1012.44 1013.51 1014.77 1015.74 1016.41 1017.08 1017.99 1019.14
1009.88 1009.57 1008.78 1007.96 1007.26 1006.34 1005.51 1005.06 1004.75 1004.19 1003.56 1003.15 1002.46 1002.34 1001.82 1001.39 1000.54 1000.12 999.87 999.95 1000.86 1001.48 1001.36 1001.92 1002.21 1002.50 1003.45 1003.86 1004.63 1005.50 1006.58 1007.66 1008.84 1009.98 1010.95 1011.71 1012.56 1013.18 1014.23 1015.34 1015.93 1016.54 1017.60 1018.26
1008.87 1008.33 1008.42 1007.32 1006.79 1006.75 1005.35 1004.74 1004.41 1003.77 1003.05 1002.81 1002.10 1001.56 1001.41 1001.17 1000.37 999.70 999.98 1000.40 1000.91 1001.52 1001.85 1002.25 1002.50 1003.02 1003.56 1004.19 1005.11 1005.99 1006.64 1007.40 1008.51 1009.75 1010.75 1011.48 1012.16 1013.12 1014.31 1015.43 1016.22 1016.86 1017.48 1018.10
Wind_Speed
5 5 11 18 17 17 9 11 20 13 8 11 17 27 26 11 8 10 11 7 16 21 26 21 20 20 21 19 21 22 22 20 15 12 10 8 7 6 4 3 6 6 6 6
3 21 17 12 15 17 18 22 25 23 16 18 19 30 27 17 10 12 14 10 14 18 16 20 21 22 21 24 23 23 22 22 16 13 10 6 8 4 5 4 5 5 6 6
16 11 14 18 18 20 21 25 21 25 15 18 14 28 24 23 14 8 7 10 8 19 23 23 23 25 23 25 25 24 24 23 19 18 12 9 8 6 4 5 4 4 5 6
17 20 22 16 22 18 23 17 20 21 14 17 8 20 33 18 21 17 14 13 10 11 19 24 26 25 27 25 23 23 23 22 19 21 15 21 11 11 4 5 4 5 5 6
29 6 17 23 32 15 29 7 14 18 16 9 25 6 26 12 18 12 9 11 12 13 20 22 24 27 27 24 24 23 22 21 20 19 17 14 13 7 8 7 9 6 4 5
30 9 8 18 11 11 8 11 16 11 9 14 33 9 17 25 11 3 8 12 16 13 18 20 26 24 22 20 20 21 23 21 20 18 17 16 16 14 11 10 8 6 4 3
22 32 29 19 17 19 8 7 8 8 12 16 22 11 23 23 7 16 18 15 15 10 13 18 22 19 21 23 24 22 25 23 20 18 18 17 16 16 17 14 9 10 6 3
11 16 19 10 27 14 13 22 10 19 13 12 12 14 23 10 3 6 9 9 11 17 10 18 25 24 27 27 27 26 26 23 21 19 19 20 21 13 12 12 9 8 6 5
6 11 12 10 13 16 19 13 24 19 25 14 14 16 14 9 3 11 12 13 13 10 10 14 25 23 22 22 22 22 24 21 21 19 17 14 13 18 14 14 10 7 7 6
6 7 11 7 10 18 12 2 7 9 17 27 15 19 12 6 7 9 11 13 15 11 8 12 14 13 12 14 15 17 18 18 15 14 14 14 15 13 16 15 14 12 9 9
7 5 5 5 3 6 6 8 7 4 6 15 18 13 6 3 1 4 8 9 10 10 10 10 13 13 13 13 13 14 17 17 16 15 14 17 11 13 13 12 12 12 11 10
6 7 5 11 10 5 6 6 9 5 3 4 5 3 8 9 6 5 5 8 7 6 8 9 11 13 14 14 12 11 10 13 14 16 16 15 20 14 13 12 12 11 11 9
7 5 8 9 5 7 7 3 2 6 5 2 5 1 10 9 10 5 4 5 3 1 7 12 13 12 10 11 14 15 13 12 12 15 15 14 15 16 15 14 13 11 11 10
4 5 8 5 12 7 10 8 3 5 1 10 7 10 21 17 12 6 11 10 7 5 7 7 9 11 14 16 17 16 15 14 15 14 15 15 14 15 13 12 11 11 10 10
4 5 1 11 21 18 15 17 15 11 11 9 9 14 20 16 9 12 12 3 5 10 12 11 10 10 11 11 12 14 15 15 16 15 15 13 13 13 14 14 12 11 10 9
5 4 2 7 6 17 12 18 17 16 19 16 17 20 20 14 14 16 12 8 9 8 9 10 12 15 16 17 17 15 14 14 16 15 13 13 14 13 13 14 12 11 9 8
5 5 3 8 9 9 11 18 17 13 13 9 12 22 6 4 10 13 16 12 12 10 12 13 17 18 17 18 17 17 16 15 15 15 16 15 14 14 13 13 13 13 10 8
6 3 2 9 5 8 14 10 9 9 12 17 17 21 7 9 7 8 15 16 17 13 9 15 14 13 13 14 14 15 15 14 14 15 16 16 14 13 12 11 12 11 9 10
17 5 3 4 8 8 13 11 3 4 4 15 18 17 3 4 5 4 9 9 7 7 7 15 16 14 14 16 15 16 15 14 15 15 16 17 16 15 14 13 13 10 11 10
4 15 8 2 5 7 1 8 11 10 8 14 15 15 16 11 5 4 8 13 13 9 4 7 12 13 14 15 17 18 17 17 16 15 14 14 16 15 13 12 13 10 10 9
4 3 11 10 11 6 10 10 11 4 7 19 15 14 11 5 5 5 8 3 3 3 3 4 11 15 15 17 17 17 16 17 16 13 13 13 13 14 13 13 10 10 10 10
4 3 3 3 4 6 8 2 3 4 11 9 19 11 11 9 9 7 6 10 3 3 4 2 6 8 11 13 14 15 15 11 12 18 16 14 14 11 12 14 10 10 10 10
3 1 2 7 7 12 9 5 6 5 10 12 12 14 12 14 11 11 5 7 4 3 3 3 8 10 10 13 14 15 11 14 13 14 16 14 14 13 13 13 12 10 10 9
4 3 4 8 8 16 16 5 5 7 13 11 14 11 10 9 7 8 8 7 6 4 4 4 8 12 10 10 10 11 15 15 14 13 12 13 13 14 12 9 9 9 9 9
6 2 4 9 12 11 7 9 11 15 16 11 15 6 10 8 8 6 5 4 4 3 4 5 7 8 8 10 11 14 15 15 13 11 11 10 9 11 11 9 9 8 9 10
5 9 6 7 6 7 14 14 15 15 13 13 17 14 5 6 8 4 6 6 6 5 5 5 7 9 10 12 12 12 14 16 16 14 11 10 10 9 9 8 7 11 14 18
Wind_Direction
207 195 209 213 216 237 265 255 264 266 252 282 282 279 280 257 256 270 265 224 202 200 206 191 184 181 182 175 174 171 157 159 153 153 148 144 141 137 126 132 127 118 116 119
273 242 224 219 221 235 244 255 263 278 270 260 271 272 278 271 253 238 253 240 206 205 187 191 188 185 181 179 176 172 168 161 161 158 152 139 142 138 135 125 117 122 120 125
222 217 198 225 231 227 239 243 259 260 283 274 291 280 283 279 267 242 246 248 220 202 191 191 186 188 178 182 179 176 171 166 160 155 131 127 113 115 114 134 123 132 131 126
251 246 244 247 243 219 249 233 256 271 278 273 169 277 281 284 265 258 256 254 232 215 204 195 189 184 184 185 178 175 168 165 159 158 158 159 155 156 136 140 128 130 134 131
236 166 203 224 236 217 249 278 270 278 275 291 270 238 281 261 271 266 250 252 253 197 200 201 195 191 187 178 178 172 165 162 160 164 162 157 149 131 135 127 133 128 135 133
253 255 234 239 256 235 277 285 288 285 260 252 259 182 267 270 251 272 255 243 249 241 209 201 198 188 181 174 172 168 164 161 164 163 159 157 148 142 142 143 147 146 149 140
258 256 263 267 276 262 232 267 258 247 230 241 259 224 234 266 295 284 274 266 256 243 199 200 193 173 175 177 172 169 165 164 166 156 157 152 150 150 155 152 156 154 154 155
241 266 235 208 222 248 205 221 219 234 238 247 236 227 238 231 274 20 318 301 285 272 241 205 187 178 178 178 172 168 166 163 161 157 163 161 155 152 154 154 159 155 153 152
276 241 294 288 241 225 252 220 226 238 260 273 251 268 295 257 339 22 359 348 331 304 271 217 180 175 171 170 170 167 160 157 158 162 152 162 155 147 152 145 150 149 131 148
254 263 261 284 241 251 224 87 228 225 231 242 246 255 250 23 13 19 350 344 334 332 26 85 126 136 150 153 154 158 156 151 145 148 147 148 151 154 147 143 144 147 148 141
292 235 287 319 276 315 268 238 250 264 211 228 240 248 168 137 100 13 336 344 349 10 15 69 92 113 122 126 141 144 147 140 139 143 145 136 136 132 133 132 143 145 140 142
24 295 293 284 269 358 53 18 8 290 301 291 291 230 21 4 330 27 340 329 9 38 61 67 104 116 120 133 138 152 142 149 147 144 143 142 130 132 132 137 139 142 135 136
348 348 308 303 124 51 30 32 14 274 251 307 345 358 357 273 297 286 296 288 291 356 135 128 130 133 127 135 138 138 145 152 143 138 133 135 132 136 139 140 140 135 134 133
193 247 261 282 300 287 289 287 262 276 270 344 298 301 313 290 283 260 222 213 242 234 184 167 140 154 153 160 156 153 152 152 145 140 139 140 140 137 134 130 129 130 131 129
134 259 274 300 324 302 292 299 289 245 253 228 264 256 272 276 267 254 252 251 210 205 178 181 165 165 166 166 155 148 149 153 144 141 142 140 134 131 131 130 133 137 142 144
189 247 319 302 295 327 320 298 281 260 244 254 253 262 258 244 258 268 264 254 226 215 197 191 170 172 175 177 162 156 158 152 142 136 133 133 133 135 138 133 150 135 159 141
187 193 169 259 276 336 288 254 264 265 268 245 241 249 235 276 258 261 276 250 233 206 190 182 187 186 180 176 164 162 158 153 151 141 139 139 141 139 145 152 137 163 138 141
239 206 44 287 323 247 245 274 296 289 275 281 283 278 270 253 273 273 287 237 242 216 189 188 186 184 179 160 153 144 150 153 152 149 148 142 146 146 139 149 151 129 136 150
217 213 266 231 239 293 302 284 252 176 276 22 341 306 354 306 270 346 343 337 248 241 201 193 185 169 160 152 144 145 151 158 157 161 163 156 151 151 152 163 134 149 151 143
245 205 208 205 245 238 216 357 321 280 248 13 343 341 330 333 336 294 349 340 340 6 360 156 145 150 141 148 150 151 159 165 165 163 166 162 152 151 165 141 153 155 148 138
309 319 233 248 247 274 358 355 315 165 293 322 322 306 293 294 233 272 312 326 315 296 338 122 152 160 156 151 155 162 168 172 158 151 151 157 152 148 145 142 143 143 136 132
271 253 244 259 271 245 333 351 24 280 291 312 293 285 303 281 278 269 257 263 253 43 12 53 131 137 149 155 162 157 169 150 149 142 144 146 144 139 141 138 142 138 138 137
282 84 302 286 328 310 320 236 203 259 299 299 320 306 292 285 282 286 237 235 192 154 132 141 140 141 148 160 161 147 146 142 147 151 147 146 142 145 145 145 150 145 148 154
257 240 224 287 299 315 323 301 315 315 321 292 278 276 297 266 272 294 271 205 190 164 136 140 150 155 151 154 132 133 141 148 149 149 149 144 146 143 147 151 155 152 158 163
195 286 247 269 285 304 281 315 315 317 320 298 292 263 296 299 300 260 300 179 128 136 112 147 160 145 142 131 124 138 144 145 142 138 140 142 147 148 149 158 165 165 174 175
175 238 216 245 253 256 280 304 307 311 313 310 309 296 302 311 321 304 49 79 108 112 123 111 115 127 132 132 136 143 148 146 143 146 149 154 155 156 156 157 158 177 171 178